Zurück zum Katalog

CZ-3C DEB

AktivGTO
NORAD 40834·DEBRIS·🇨🇳 China

Gestartet Oct 31, 2010 von Xichang Satellite Launch Center

Loading…

TLE

VeraltetSource: Space-Track

Epoche: Sep 11, 2026, 18:32 UTC

1 40834U 10057BB  26254.77278040  .00000027  00000-0  73375-3 0  9993
2 40834  19.8921 107.9284 7198951 144.6229 296.7783  2.19674302 92412

Verfolge CZ-3C DEB in Echtzeit mit AllMySat

Download on the App Store